Location: Vienna
(48.2082°N, 16.3738°E)
Time: 00:03:28
(UTC+01:00)

ISS - Visible Passes

Search period start: 20 November 2019 00:00
Search period end: 30 November 2019 00:00
Orbit: 412 x 421 km, 51.6° (Epoch: 20 November)

Date Brightness Start Highest point End Pass type
(mag) Time Alt. Az. Time Alt. Az. Time Alt. Az.
22 Nov -1.7 18:28:30 10° SSW 18:29:56 21° SSW 18:29:56 21° SSW visible
23 Nov -2.3 17:40:37 10° SSW 17:43:17 22° SE 17:43:42 22° SE visible
23 Nov -0.4 19:16:23 10° WSW 19:16:37 12° WSW 19:16:37 12° WSW visible
24 Nov -1.6 16:53:09 10° S 16:55:04 15° SE 16:56:59 10° E visible
24 Nov -2.6 18:27:59 10° WSW 18:30:18 40° SW 18:30:18 40° SW visible
25 Nov -3.3 17:39:42 10° SW 17:42:56 48° SSE 17:43:54 35° E visible
25 Nov -0.4 19:16:24 10° W 19:16:48 13° W 19:16:48 13° W visible
26 Nov -2.6 16:51:35 10° SSW 16:54:36 32° SE 16:57:27 11° E visible
26 Nov -2.7 18:27:52 10° W 18:30:21 45° W 18:30:21 45° W visible
27 Nov -3.8 17:39:21 10° WSW 17:42:42 86° NNW 17:43:51 39° ENE visible
27 Nov -0.3 19:16:26 10° WNW 19:16:45 12° WNW 19:16:45 12° WNW visible
28 Nov -3.6 16:50:56 10° SW 16:54:15 68° SSE 16:57:19 12° ENE visible
28 Nov -2.4 18:27:51 10° W 18:30:13 36° NW 18:30:13 36° NW visible
29 Nov -3.4 17:39:16 10° W 17:42:35 54° NNW 17:43:39 36° NE visible
29 Nov -0.3 19:16:22 10° WNW 19:16:32 11° WNW 19:16:32 11° WNW visible
